Miscellaneous Local Product
Issued by NWS North Platte, NE

Home | Current Version | Previous Version | Text Only | Print | Product List | Glossary On
Versions: 1 2 3 4 5 6 7 8 9 10 11 12 13 14 15 16 17 18 19 20 21 22 23 24 25 26 27 28 29 30 31 32 33 34 35 36 37 38 39 40 41 42 43 44 45 46 47 48 49 50
000
AXUS43 KLBF 051710
MISLBF


WESTERN AND NORTH CENTRAL NEBRASKA HOURLY WEATHER ROUNDUP
NATIONAL WEATHER SERVICE NORTH PLATTE NE
1100 AM CST MON DEC 05 2016

NOTE: "FAIR" INDICATES FEW OR NO CLOUDS BELOW 12,000 FEET WITH NO
SIGNIFICANT WEATHER AND/OR OBSTRUCTIONS TO VISIBILITY.

NOTE: STATIONS NOT REPORTING VARIABLES SUCH AS SKY/WEATHER OR
PRESSURE ARE PROVIDED BY RAWS AND APRS NETWORKS AND ARE NOT UNDER
NATIONAL WEATHER SERVICE QUALITY CONTROL.

...OBSERVATIONS IN AND NEAR THE EASTERN PANHANDLE OF NEBRASKA...

CITY           SKY/WX    TMP DP  RH WIND       PRES   REMARKS
PINE RIDGE     LGT SNOW  32  31  96 N5        29.61R FOG     WCI  27
CHADRON        LGT SNOW  34  27  75 NW9       29.64  WCI  27
ALLIANCE       MOSUNNY   40  26  57 N21       29.58  WCI  30
SIDNEY         CLOUDY    48  25  40 W10       29.60
CRESCENT LAKE    N/A     51  22  32 W17         N/A
$$

...OBSERVATIONS IN NORTHERN NEBRASKA AND FAR SOUTHERN SOUTH DAKOTA...

CITY           SKY/WX    TMP DP  RH WIND       PRES   REMARKS
WINNER         FAIR      43  27  53 W20       29.51R
VALENTINE      SUNNY     41  23  48 NW22G29   29.54
THEDFORD       MOSUNNY   55  27  34 W13G24    29.55R
AINSWORTH      SUNNY     51  27  39 W16       29.50R
O`NEILL        PTSUNNY   46  27  47 S13       29.52S
ORD            MOSUNNY   41  24  51 S10       29.57S
BROKEN BOW     MOSUNNY   42  25  50 S7        29.57
VALENTINE NWR    N/A     49  25  38 W9G16       N/A
BUTTE            N/A     42  27  54 S6          N/A
HALSEY           N/A     50  25  37 CALM        N/A
CHAMBERS         N/A     42  25  51 MISG        N/A
EWING            N/A     40  29  64 S8          N/A  WCI  34
$$

...OBSERVATIONS IN SOUTHWEST NEBRASKA AND FAR NORTHEAST COLORADO...

CITY           SKY/WX    TMP DP  RH WIND       PRES   REMARKS
WRAY           PTSUNNY   43  21  42 W3        29.61R
HOLYOKE        FAIR      45  23  42 W6        29.60F
IMPERIAL       CLOUDY    44  19  36 W5        29.59
OGALLALA       CLOUDY    40  23  49 W3        29.60R
NORTH PLATTE   CLOUDY    38  23  55 SE5       29.59F WCI  34
MCCOOK         SUNNY     40  22  48 VRB3      29.61
LEXINGTON      CLOUDY    41  24  51 SW5       29.61S
STAPLETON        N/A     42  25  51 SW3         N/A
GOTHENBURG       N/A     40  22  49 CALM        N/A
CALLAWAY         N/A     46  27  47 W10         N/A
$$

...OBSERVATIONS IN CENTRAL LINCOLN COUNTY AREA...

CITY           SKY/WX    TMP DP  RH WIND       PRES   REMARKS
N.P. AIRPORT   CLOUDY    38  23  55 SE5       29.59F WCI  34
N.P. DOWNTOWN    N/A     38  24  57 CALM        N/A
N.P. SOUTHEAST   N/A     38  24  57 CALM        N/A
N.P. HILLCREST   N/A     38  25  58 S3          N/A
$$

...SOME OBSERVATIONS FROM AROUND THE REGION...

CITY           SKY/WX    TMP DP  RH WIND       PRES   REMARKS
LARAMIE        CLOUDY    25  11  55 W30G40    29.66R WCI   8
CHEYENNE       MOSUNNY   38  22  52 NW24G44   29.64  WCI  27
DENVER         MOSUNNY   54  22  28 W22G31    29.61
AKRON          CLOUDY    47  19  33 SW3       29.61
SCOTTSBLUFF    MOSUNNY   47  25  42 W25G47    29.59R
RAPID CITY     CLOUDY    28  20  71 NW37G47   29.61R WCI  11
BISMARCK       SNOW      32  31  96 NW10      29.58S VSB 1/2 WCI  24
PIERRE         SUNNY     33  28  81 NW17      29.50R WCI  22
SIOUX FALLS    CLOUDY    40  31  70 S14G23    29.54S WCI  32
OMAHA          PTSUNNY   43  33  68 S17       29.73F
GRAND ISLAND   MOSUNNY   41  30  65 S14       29.63F
KANSAS CITY    SUNNY     47  37  68 S15G26    29.85F
WICHITA        MOSUNNY   47  39  74 S20G29    29.78F
OKLAHOMA CITY  PTSUNNY   42  41  96 S13       29.88S
DALLAS         CLOUDY    50  44  80 SE5       29.90R
AMARILLO       SUNNY     48  28  46 S21       29.71F
DODGE CITY     SUNNY     44  31  60 S23       29.64F
HAYS           SUNNY     46  31  55 S16       29.63
GOODLAND       SUNNY     54  20  26 N13       29.56S
$$




USA.gov is the U.S. government's official web portal to all federal, state and local government web resources and services.